Torna al catalogo

FLOCK 4Q 29

AttivoScienzaPO
NORAD 58304·PAYLOAD·🇺🇸 United States

Lanciato Nov 11, 2023 da Vandenberg Space Force Base

Loading…

Prossimi Passaggi (prossime 24 ore)

TLE

AggiornatoSource: Space-Track

Epoca: Sep 13, 2026, 19:42 UTC

1 58304U 23174BA  26256.82093809  .00233476  00000-0  13529-2 0  9994
2 58304  97.3851 352.8922 0004686 220.4655 139.6263 15.77900516159628

Traccia FLOCK 4Q 29 in tempo reale con AllMySat

Download on the App Store